[[{"header":{"parameterUnit":"m.s-1","parameterCategory":1,"la1":30.2991,"la2":30.254,"lo1":-89.0895,"lo2":-89.0444,"dy":0.0017,"dx":0.0017,"nx":28,"ny":28,"refTime":"2025-04-18T21:00:00:Z","depth":0,"parameterNumber":2,"parameterNumberName":"U-component_of_WINDS"},"data":[0,0,0,0,0,0,0,0,0,0,0,0,0,0,0,0,0,0,0,0,0,0,0,0,0,0,0,0,0,0,0,0,0,0,0,0,0,0,0,0,0,0,0,0,0,0,0,0,0,0,0,0,0,0,0,0,0,0,-4.4138,-4.4139,0,-4.4274,-4.4276,-4.4277,-4.4255,-4.4253,-4.425,-4.4248,-4.4389,-4.4394,-4.44,0,0,0,0,0,0,0,0,0,0,0,0,0,-4.386,-4.3865,-4.4138,-4.4139,-4.4141,-4.4274,-4.4276,-4.4278,-4.4256,-4.4253,-4.425,-4.4247,-4.4387,-4.4394,-4.4401,0,0,0,0,0,0,0,0,0,0,0,0,0,-4.3987,-4.3867,-4.4137,-4.4146,-4.4148,-4.4274,-4.4276,-4.4278,-4.4256,-4.4253,-4.4249,-4.4246,-4.4384,-4.4393,-4.4402,-4.4527,0,0,-4.4429,-4.4433,0,0,0,0,0,0,0,0,-4.398,-4.3997,-4.4143,-4.4146,-4.4148,-4.4244,-4.4229,-4.4362,-4.4257,-4.4215,-4.4248,-4.4244,-4.4343,-4.4355,-4.4389,-4.4534,-4.454,-4.443,-4.4435,-4.4439,-4.4441,0,0,0,0,0,0,0,-4.3971,-4.3991,-4.4192,-4.4145,-4.4149,-4.4144,-4.4158,-4.4254,-4.4297,-4.4219,-4.4217,-4.4234,-4.4344,-4.438,-4.4392,-4.4542,-4.4429,-4.4437,-4.4443,-4.4446,-4.4799,-4.4802,0,0,0,0,0,0,-4.396,-4.3984,-4.4187,-4.4196,-4.4054,-4.4152,-4.4167,-4.4217,-4.4296,-4.4305,-4.4237,-4.4232,-4.4367,-4.4382,-4.4397,-4.4549,-4.4439,-4.4447,-4.4452,-4.4795,-4.4799,-4.4804,0,0,0,0,0,0,-4.3954,-4.3978,-4.4182,-4.409,-4.4115,-4.416,-4.4216,-4.4221,-4.4257,-4.431,-4.4318,-4.4265,-4.4365,-4.4384,-4.4495,-4.4554,-4.4451,-4.4459,-4.479,-4.4796,-4.4802,-4.4855,0,0,0,0,0,0,-4.3946,-4.3976,-4.4023,-4.4091,-4.412,-4.4277,-4.422,-4.4227,-4.4273,-4.4268,-4.4339,-4.4347,-4.4363,-4.4482,-4.4504,-4.4564,-4.4466,-4.4785,-4.4793,-4.48,-4.4848,-4.4862,-4.4874,0,0,0,0,0,-4.3936,-4.4033,-4.4026,-4.405,-4.4181,-4.4281,-4.4298,-4.4314,-4.4278,-4.4326,-4.436,-4.4345,-4.4544,-4.4494,-4.4518,-4.4582,-4.4781,-4.479,-4.4799,-4.4842,-4.4859,-4.4873,0,0,0,0,0,0,-4.397,-4.4042,-4.4035,-4.4156,-4.4213,-4.4277,-4.4338,-4.4331,-4.4399,-4.4392,-4.441,-4.4426,-4.4539,-4.4572,-4.4514,-4.4708,-4.4658,-4.4672,-4.4682,-4.4698,-4.4711,-4.47,-4.4474,0,0,0,0,0,-4.3992,-4.4067,-4.4126,-4.4227,-4.4256,-4.4293,-4.4337,-4.4345,-4.4404,-4.4428,-4.447,-4.4528,-4.4604,-4.4654,-4.4726,-4.4854,-4.4869,-4.491,-4.4923,-4.4933,-4.4944,-4.5015,-4.5033,-4.4833,-4.4833,-4.4833,0,0,-4.4038,-4.4086,-4.4132,-4.4236,-4.428,-4.4358,-4.4313,-4.4397,-4.4455,-4.4441,-4.4547,-4.4581,-4.4648,-4.4768,-4.4823,-4.4799,-4.5004,-4.4944,-4.4952,-4.4958,-4.5026,-4.5045,-4.5062,-4.484,-4.4839,-4.4838,0,0,-4.416,-4.4204,-4.4294,-4.434,-4.4409,-4.4433,-4.4454,-4.4521,-4.4542,-4.465,-4.4641,-4.4712,-4.4842,-4.489,-4.4931,-4.5075,-4.5064,-4.5099,-4.5165,-4.5233,-4.5249,-4.5263,-4.5314,-4.5332,-4.511,-4.5111,-4.5111,0,-4.4207,-4.4324,-4.4341,-4.4426,-4.4472,-4.4464,-4.4555,-4.46,-4.4689,-4.4721,-4.4693,-4.4857,-4.4902,-4.5033,-4.5068,-4.5102,-4.5128,-4.5089,-4.5245,-4.526,-4.5273,-4.5321,-4.5341,-4.5114,-4.5114,-4.5113,-4.5113,0,-4.4379,-4.446,-4.4525,-4.4611,-4.4665,-4.4752,-4.4783,-4.4836,-4.4841,-4.4868,-4.4979,-4.5032,-4.5116,-4.5148,-4.5153,-4.5281,-4.5264,-4.5241,-4.519,-4.5295,-4.5341,-4.536,-4.5119,-4.5118,-4.5117,-4.5116,0,0,-4.4524,-4.462,-4.4643,-4.4682,-4.4759,-4.4822,-4.4911,-4.4993,-4.5037,-4.51,-4.5175,-4.5287,-4.5267,-4.5314,-4.5325,-4.5385,-4.5495,-4.5355,-4.5357,-4.5378,-4.5639,-4.5654,-4.5676,-4.549,-4.5493,-4.5496,-4.5633,0,-4.4652,-4.4807,-4.4826,-4.4965,-4.504,-4.5035,-4.5113,-4.5168,-4.5197,-4.5266,-4.5299,-4.5377,-4.5345,-4.5373,-4.5433,-4.5469,-4.5548,-4.546,-4.5559,-4.5562,-4.554,-4.57,-4.5716,-4.5842,-4.5651,-4.5654,-4.5657,0,-4.4822,-4.4889,-4.5035,-4.5102,-4.5135,-4.5204,-4.5281,-4.5347,-4.5411,-4.5428,-4.5482,-4.5486,-4.5579,-4.5526,-4.5654,-4.5594,-4.5637,-4.5661,-4.5666,-4.5674,-4.5614,-4.571,-4.5883,-4.5901,-4.5685,-4.5683,-4.5681,0,-4.4911,-4.5039,-4.5143,-4.5177,-4.5258,-4.5307,-4.5343,-4.5404,-4.5452,-4.5521,-4.5553,-4.5631,-4.5674,-4.5735,-4.5761,-4.572,-4.5887,-4.5837,-4.5904,-4.5903,-4.5937,-4.5934,-4.6117,-4.5968,-4.5967,-4.5967,-4.5967,0,-4.5051,-4.514,-4.5184,-4.5247,-4.5348,-4.537,-4.5469,-4.5504,-4.5558,-4.5629,-4.5631,-4.5698,-4.5728,-4.58,-4.5821,-4.5924,-4.5944,-4.596,-4.5964,-4.5958,-4.5956,-4.5985,-4.5976,-4.5972,-4.5971,-4.597,-4.5969,0,-4.5166,-4.5199,-4.5312,-4.5381,-4.54,-4.5471,-4.553,-4.5592,-4.5622,-4.5712,-4.5734,-4.578,-4.5865,-4.5897,-4.6001,-4.6015,-4.6134,-4.6132,-4.6112,-4.6112,-4.6177,-4.617,-4.6383,-4.6412,-4.6245,-4.6246,-4.6248,0,-4.5252,-4.5321,-4.5397,-4.5445,-4.5483,-4.5559,-4.5609,-4.5635,-4.5687,-4.5767,-4.582,-4.5904,-4.5973,-4.6109,-4.6153,-4.6232,-4.6231,-4.6301,-4.6243,-4.6236,-4.6231,-4.6225,-4.6232,-4.631,-4.6312,-4.6313,-4.6314,0,-4.5401,-4.5415,-4.5486,-4.5564,-4.5624,-4.5687,-4.5748,-4.5787,-4.5822,-4.5881,-4.5968,-4.6022,-4.6128,-4.6212,-4.6295,-4.6333,-4.633,-4.6333,-4.6352,-4.6346,-4.6331,-4.6339,-4.6139,-4.6327,-4.6326,-4.6325,-4.6324,-4.6324,-4.5504,-4.5564,-4.5628,-4.5708,-4.5757,-4.5815,-4.5877,-4.5914,-4.5987,-4.6075,-4.6087,-4.618,-4.6245,-4.6355,-4.6398,-4.6471,-4.6453,-4.6481,-4.6488,-4.6494,-4.6498,-4.6322,-4.6487,-4.6487,-4.6486,-4.6486,-4.6486,0,-4.5651,-4.5693,-4.5766,-4.5852,-4.5915,-4.5908,-4.5976,-4.603,-4.6111,-4.6172,-4.624,-4.6341,-4.6423,-4.6474,-4.6557,-4.6607,-4.6607,-4.6627,-4.6623,-4.6632,-4.651,-4.6485,-4.6625,-4.6625,-4.6625,-4.6625,-4.6625,-4.6625,-4.5735,-4.5838,-4.586,-4.5987,-4.6028,-4.6119,-4.6158,-4.6212,-4.626,-4.6372,-4.6441,-4.6474,-4.6531,-4.6618,-4.6694,-4.6707,-4.6737,-4.6758,-4.677,-4.6655,-4.664,-4.6626,-4.6602,-4.6765,-4.6765,-4.6885,-4.6886,-4.6886]},{"header":{"parameterUnit":"m.s-1","parameterCategory":1,"la1":30.2991,"la2":30.254,"lo1":-89.0895,"lo2":-89.0444,"dy":0.0017,"dx":0.0017,"nx":28,"ny":28,"refTime":"2025-04-18T21:00:00:Z","depth":0,"parameterNumber":3,"parameterNumberName":"V-component_of_WINDS"},"data":[0,0,0,0,0,0,0,0,0,0,0,0,0,0,0,0,0,0,0,0,0,0,0,0,0,0,0,0,0,0,0,0,0,0,0,0,0,0,0,0,0,0,0,0,0,0,0,0,0,0,0,0,0,0,0,0,0,0,2.3872,2.3872,0,2.396,2.3961,2.3962,2.3968,2.3967,2.3966,2.3966,2.4053,2.4056,2.406,0,0,0,0,0,0,0,0,0,0,0,0,0,2.3707,2.371,2.3871,2.3873,2.3874,2.396,2.3961,2.3962,2.3969,2.3967,2.3966,2.3965,2.4052,2.4056,2.406,0,0,0,0,0,0,0,0,0,0,0,0,0,2.3785,2.3711,2.3871,2.3887,2.389,2.396,2.3961,2.3963,2.3969,2.3967,2.3966,2.3965,2.4051,2.4056,2.406,2.412,0,0,2.4075,2.4077,0,0,0,0,0,0,0,0,2.3781,2.3791,2.3884,2.3886,2.3889,2.3952,2.3935,2.4015,2.3969,2.3939,2.3965,2.3964,2.402,2.4028,2.4047,2.4124,2.4128,2.4076,2.4079,2.4081,2.4082,0,0,0,0,0,0,0,2.3775,2.3787,2.3906,2.3885,2.3888,2.389,2.3899,2.395,2.3987,2.3941,2.3942,2.3952,2.4022,2.4043,2.405,2.4129,2.4076,2.408,2.4083,2.4085,2.4261,2.4263,0,0,0,0,0,0,2.3767,2.3783,2.3904,2.3909,2.383,2.3894,2.3905,2.3933,2.3986,2.3993,2.3954,2.3952,2.4035,2.4044,2.4053,2.4127,2.4081,2.4085,2.4088,2.4259,2.4261,2.4263,0,0,0,0,0,0,2.3763,2.3778,2.39,2.3846,2.3862,2.3898,2.393,2.3936,2.3957,2.3995,2.4002,2.3969,2.4034,2.4046,2.4104,2.413,2.4087,2.4092,2.4257,2.426,2.4262,2.4276,0,0,0,0,0,0,2.3759,2.3776,2.3799,2.3847,2.3865,2.395,2.3932,2.3938,2.3966,2.3965,2.4011,2.4018,2.4034,2.4097,2.4109,2.4136,2.4096,2.4255,2.4258,2.4261,2.4273,2.4278,2.4283,0,0,0,0,0,2.3753,2.3798,2.38,2.3815,2.3894,2.3951,2.3962,2.3981,2.3968,2.3991,2.4016,2.4016,2.4126,2.4102,2.4116,2.4145,2.4253,2.4257,2.4261,2.4271,2.4277,2.4283,0,0,0,0,0,0,2.3751,2.3805,2.3808,2.387,2.3906,2.3952,2.3982,2.3987,2.4027,2.4024,2.4045,2.4056,2.4113,2.4135,2.4108,2.4207,2.4188,2.4195,2.4191,2.4197,2.4202,2.4196,2.41,0,0,0,0,0,2.3758,2.3801,2.3845,2.3896,2.3914,2.3945,2.3971,2.3983,2.4021,2.4036,2.4065,2.4101,2.4144,2.4172,2.4213,2.4276,2.4287,2.4304,2.4309,2.4313,2.4318,2.4355,2.4364,2.4276,2.4276,2.4276,0,0,2.3773,2.3808,2.3833,2.3897,2.3926,2.397,2.3958,2.4004,2.4037,2.4042,2.41,2.4123,2.4165,2.4226,2.4255,2.4246,2.4345,2.4318,2.4321,2.4324,2.436,2.4368,2.4376,2.4279,2.4278,2.4278,0,0,2.3822,2.3853,2.3899,2.393,2.3976,2.3996,2.4008,2.4054,2.407,2.4128,2.4134,2.4173,2.4246,2.4277,2.4301,2.4366,2.4367,2.4378,2.4405,2.4441,2.4447,2.4454,2.4478,2.4486,2.4384,2.4384,2.4384,0,2.3835,2.3901,2.3922,2.3969,2.3998,2.4007,2.4055,2.4083,2.4139,2.4159,2.4149,2.4243,2.4271,2.4341,2.4357,2.4376,2.4391,2.4373,2.4445,2.4451,2.4457,2.4481,2.449,2.4385,2.4385,2.4385,2.4385,0,2.3915,2.3961,2.3993,2.405,2.4082,2.4129,2.4157,2.4187,2.4197,2.4219,2.4279,2.4314,2.4364,2.4381,2.439,2.4453,2.4447,2.4441,2.4422,2.4467,2.4489,2.4498,2.4387,2.4386,2.4386,2.4386,0,0,2.3964,2.4034,2.4045,2.4072,2.4124,2.416,2.4208,2.4259,2.4285,2.4324,2.4365,2.4428,2.4424,2.4452,2.4465,2.4496,2.4547,2.4487,2.4488,2.4497,2.462,2.4625,2.4635,2.4549,2.455,2.4552,2.4617,0,2.402,2.4107,2.4129,2.4203,2.4246,2.4257,2.4299,2.4336,2.4358,2.4399,2.4423,2.4468,2.4458,2.4476,2.4507,2.4534,2.4572,2.4529,2.4587,2.4589,2.4577,2.4646,2.4651,2.471,2.4626,2.4627,2.4628,0,2.4096,2.414,2.4219,2.4268,2.4287,2.4324,2.4374,2.4412,2.4454,2.4469,2.4502,2.4512,2.4563,2.4543,2.4614,2.4584,2.461,2.4627,2.4629,2.4636,2.4611,2.4655,2.473,2.4739,2.4642,2.4641,2.464,0,2.4126,2.4204,2.4262,2.4284,2.4342,2.4369,2.4394,2.4435,2.4465,2.4508,2.4528,2.4575,2.4601,2.4638,2.4661,2.4644,2.4731,2.4711,2.4744,2.4744,2.4762,2.4761,2.4843,2.4777,2.4777,2.4777,2.4777,0,2.4187,2.4235,2.4276,2.4312,2.4367,2.4391,2.4445,2.447,2.4507,2.4548,2.456,2.4598,2.4626,2.4668,2.4687,2.4744,2.4755,2.4768,2.4773,2.4768,2.4766,2.4784,2.4781,2.4779,2.4779,2.4778,2.4778,0,2.4229,2.4258,2.4322,2.4373,2.4388,2.4426,2.4469,2.4505,2.4528,2.458,2.4594,2.463,2.4681,2.4708,2.477,2.4783,2.4847,2.4849,2.4833,2.4835,2.4867,2.4864,2.4964,2.4979,2.4903,2.4904,2.4905,0,2.4266,2.4303,2.4359,2.4388,2.4415,2.4461,2.4492,2.4518,2.455,2.4603,2.4632,2.4684,2.4726,2.4807,2.4839,2.4887,2.4891,2.4923,2.4898,2.4893,2.4893,2.489,2.4895,2.4927,2.4927,2.4928,2.4928,0,2.4329,2.4342,2.4387,2.4438,2.4475,2.4516,2.4556,2.4579,2.4612,2.4647,2.47,2.4734,2.4799,2.485,2.4902,2.4928,2.4934,2.4936,2.4947,2.4942,2.4932,2.4939,2.4846,2.4934,2.4933,2.4933,2.4932,2.4932,2.437,2.4405,2.4451,2.4501,2.4534,2.4573,2.4609,2.4638,2.4683,2.4739,2.4752,2.4808,2.4852,2.4922,2.4949,2.4994,2.4987,2.5002,2.5006,2.5009,2.5011,2.4925,2.5003,2.5003,2.5003,2.5003,2.5003,0,2.4435,2.4465,2.4511,2.4569,2.4609,2.4612,2.4658,2.4691,2.4741,2.4781,2.4824,2.4885,2.4936,2.4973,2.5025,2.5053,2.5057,2.5066,2.5064,2.5071,2.5013,2.5,2.5062,2.5062,2.5062,2.5062,2.5062,2.5062,2.4473,2.4533,2.4552,2.4629,2.4659,2.4716,2.4742,2.4777,2.481,2.4879,2.4922,2.4946,2.4986,2.5041,2.5088,2.5097,2.5116,2.5125,2.5135,2.508,2.5074,2.5068,2.5056,2.5128,2.5128,2.5188,2.5189,2.5189]}]]